[[{"header":{"parameterUnit":"m.s-1","parameterCategory":1,"la1":30.2991,"la2":30.254,"lo1":-89.0895,"lo2":-89.0444,"dy":0.0017,"dx":0.0017,"nx":28,"ny":28,"refTime":"2023-07-20T03:00:00:Z","depth":0,"parameterNumber":2,"parameterNumberName":"U-component_of_WINDS"},"data":[0,0,0,0,0,0,0,0,0,0,0,0,0,0,0,0,0,0,0,0,0,0,0,0,0,0,0,0,0,0,0,0,0,0,0,0,0,0,0,0,0,0,0,0,0,0,0,0,0,0,0,0,0,0,0,0,0,0,2.7629,2.763,0,2.774,2.7741,2.7742,2.774,2.7739,2.7737,2.7736,2.7855,2.7859,2.7864,0,0,0,0,0,0,0,0,0,0,0,0,0,2.7421,2.7425,2.7628,2.763,2.7631,2.7739,2.7741,2.7742,2.774,2.7739,2.7737,2.7735,2.7854,2.7859,2.7864,0,0,0,0,0,0,0,0,0,0,0,0,0,2.752,2.7426,2.7628,2.7643,2.7646,2.7739,2.7741,2.7743,2.7741,2.7739,2.7736,2.7734,2.7852,2.7858,2.7865,2.7953,0,0,2.7886,2.7889,0,0,0,0,0,0,0,0,2.7514,2.7527,2.764,2.7642,2.7645,2.7724,2.7711,2.7813,2.7741,2.7705,2.7736,2.7733,2.7814,2.7823,2.7849,2.7958,2.7964,2.7887,2.7891,2.7894,2.7896,0,0,0,0,0,0,0,2.7507,2.7522,2.7673,2.7641,2.7645,2.7646,2.7658,2.7731,2.7771,2.7708,2.7708,2.7721,2.7815,2.7843,2.7852,2.7965,2.7887,2.7893,2.7897,2.79,2.8154,2.8156,0,0,0,0,0,0,2.7496,2.7517,2.7669,2.7676,2.7572,2.7652,2.7665,2.7701,2.777,2.7778,2.7723,2.772,2.7832,2.7844,2.7856,2.7965,2.7894,2.79,2.7904,2.8151,2.8155,2.8157,0,0,0,0,0,0,2.7492,2.751,2.7665,2.7596,2.7616,2.7658,2.7698,2.7704,2.7732,2.7781,2.7789,2.7744,2.7831,2.7847,2.7929,2.7969,2.7903,2.791,2.8148,2.8152,2.8156,2.8181,0,0,0,0,0,0,2.7486,2.7508,2.754,2.7597,2.762,2.7733,2.7701,2.7708,2.7743,2.7741,2.7803,2.7811,2.783,2.7919,2.7936,2.7977,2.7915,2.8145,2.815,2.8155,2.8177,2.8185,2.8192,0,0,0,0,0,2.7478,2.7544,2.7542,2.7561,2.7661,2.7736,2.7749,2.7768,2.7746,2.778,2.7812,2.7809,2.7961,2.7927,2.7946,2.799,2.8143,2.8149,2.8154,2.8173,2.8184,2.8192,0,0,0,0,0,0,2.7493,2.7552,2.755,2.7635,2.768,2.7735,2.7778,2.7779,2.7832,2.7828,2.7852,2.7866,2.7948,2.7978,2.7938,2.808,2.805,2.806,2.8057,2.8068,2.8075,2.8067,2.7921,0,0,0,0,0,2.7505,2.7559,2.7609,2.768,2.7702,2.7736,2.777,2.7781,2.7829,2.7849,2.7886,2.7935,2.7994,2.8032,2.8089,2.8181,2.8195,2.8221,2.8229,2.8235,2.8244,2.8296,2.8308,2.8177,2.8177,2.8177,0,0,2.7533,2.7572,2.7605,2.7683,2.7719,2.7777,2.7752,2.7814,2.7858,2.7859,2.7938,2.7968,2.8024,2.8111,2.8152,2.8138,2.8283,2.8242,2.8247,2.8252,2.8303,2.8316,2.8327,2.8181,2.818,2.818,0,0,2.7612,2.7646,2.771,2.7746,2.7801,2.7823,2.7838,2.7893,2.7912,2.7992,2.7995,2.8048,2.8149,2.8189,2.8222,2.8318,2.8318,2.8336,2.8378,2.8428,2.8439,2.8448,2.8483,2.8496,2.8345,2.8345,2.8345,0,2.764,2.7725,2.7743,2.7805,2.784,2.7842,2.7907,2.7943,2.8014,2.8039,2.8022,2.8149,2.8187,2.8285,2.8308,2.8335,2.8355,2.833,2.8435,2.8445,2.8454,2.8488,2.8501,2.8347,2.8347,2.8346,2.8346,0,2.7757,2.7816,2.7861,2.7928,2.7968,2.8032,2.8061,2.81,2.8108,2.8133,2.8216,2.8261,2.8328,2.8352,2.8361,2.8452,2.8441,2.843,2.84,2.8468,2.85,2.8514,2.835,2.8349,2.8348,2.8348,0,0,2.7848,2.7924,2.794,2.7971,2.8032,2.8079,2.8144,2.8207,2.8241,2.8291,2.8346,2.8432,2.8422,2.846,2.8474,2.8518,2.8593,2.8502,2.8503,2.8518,2.8697,2.8706,2.872,2.8593,2.8595,2.8597,2.8693,0,2.7935,2.8047,2.8065,2.8165,2.8221,2.8224,2.8281,2.8325,2.8351,2.8403,2.8432,2.8493,2.8474,2.8497,2.8541,2.8574,2.8629,2.8568,2.8647,2.8649,2.8633,2.8737,2.8746,2.8834,2.8705,2.8708,2.8709,0,2.805,2.8101,2.8206,2.826,2.8284,2.8334,2.8395,2.8444,2.8496,2.8511,2.8554,2.8563,2.8632,2.8599,2.8696,2.8654,2.8688,2.8709,2.8713,2.8722,2.8684,2.8749,2.8862,2.8876,2.8729,2.8728,2.8726,0,2.8108,2.8203,2.8278,2.8304,2.8369,2.8404,2.8433,2.8482,2.852,2.8573,2.8598,2.866,2.8694,2.8742,2.8768,2.8741,2.8864,2.8833,2.888,2.888,2.8906,2.8904,2.9027,2.8927,2.8927,2.8927,2.8926,0,2.8203,2.8267,2.8304,2.835,2.8423,2.8445,2.8517,2.8545,2.8589,2.8643,2.865,2.87,2.8731,2.8787,2.8808,2.8886,2.8901,2.8917,2.8922,2.8917,2.8915,2.8939,2.8934,2.893,2.8929,2.8929,2.8928,0,2.8279,2.8306,2.8388,2.8443,2.8458,2.8509,2.8557,2.8603,2.8628,2.8696,2.8714,2.8754,2.882,2.885,2.8932,2.8947,2.9035,2.9036,2.9017,2.9019,2.9065,2.9061,2.9209,2.923,2.9115,2.9116,2.9117,0,2.8338,2.8387,2.8447,2.8482,2.8512,2.8569,2.8607,2.8631,2.867,2.8733,2.8772,2.8838,2.8892,2.8997,2.9035,2.9099,2.9101,2.9149,2.9111,2.9104,2.9103,2.91,2.9105,2.9156,2.9157,2.9158,2.9158,0,2.844,2.8451,2.8505,2.8564,2.8608,2.8656,2.8703,2.8732,2.8764,2.8809,2.8875,2.8917,2.9,2.9066,2.9132,2.9164,2.9167,2.917,2.9184,2.918,2.9167,2.9175,2.9037,2.9166,2.9166,2.9165,2.9165,2.9164,2.851,2.8555,2.8603,2.8663,2.8701,2.8745,2.8791,2.8822,2.8877,2.8945,2.8957,2.9028,2.908,2.9168,2.9203,2.926,2.9249,2.927,2.9276,2.9281,2.9283,2.9157,2.9272,2.9272,2.9272,2.9272,2.9272,0,2.8614,2.8645,2.87,2.8765,2.8812,2.8809,2.8862,2.8902,2.8964,2.9012,2.9064,2.9141,2.9206,2.9249,2.9314,2.9352,2.9355,2.9368,2.9366,2.9374,2.9289,2.927,2.9365,2.9365,2.9365,2.9365,2.9365,2.9365,2.8673,2.8748,2.8765,2.886,2.8892,2.896,2.899,2.9032,2.9069,2.9155,2.9207,2.9234,2.9281,2.935,2.9409,2.942,2.9445,2.9458,2.9469,2.9389,2.938,2.937,2.9353,2.9463,2.9463,2.9549,2.955,2.9551]},{"header":{"parameterUnit":"m.s-1","parameterCategory":1,"la1":30.2991,"la2":30.254,"lo1":-89.0895,"lo2":-89.0444,"dy":0.0017,"dx":0.0017,"nx":28,"ny":28,"refTime":"2023-07-20T03:00:00:Z","depth":0,"parameterNumber":3,"parameterNumberName":"V-component_of_WINDS"},"data":[0,0,0,0,0,0,0,0,0,0,0,0,0,0,0,0,0,0,0,0,0,0,0,0,0,0,0,0,0,0,0,0,0,0,0,0,0,0,0,0,0,0,0,0,0,0,0,0,0,0,0,0,0,0,0,0,0,0,1.6672,1.6672,0,1.6694,1.6694,1.6694,1.6708,1.6708,1.6708,1.6708,1.6727,1.6728,1.6728,0,0,0,0,0,0,0,0,0,0,0,0,0,1.6639,1.664,1.6672,1.6672,1.6673,1.6694,1.6694,1.6694,1.6708,1.6708,1.6708,1.6708,1.6727,1.6728,1.6728,0,0,0,0,0,0,0,0,0,0,0,0,0,1.6656,1.664,1.6672,1.6682,1.6683,1.6693,1.6694,1.6694,1.6708,1.6708,1.6708,1.6709,1.6727,1.6728,1.6728,1.6729,0,0,1.673,1.673,0,0,0,0,0,0,0,0,1.6655,1.6657,1.6681,1.6682,1.6683,1.6698,1.6689,1.6706,1.6708,1.6699,1.6708,1.6709,1.6717,1.6719,1.6722,1.673,1.6731,1.673,1.6731,1.6731,1.6731,0,0,0,0,0,0,0,1.6654,1.6656,1.6681,1.6681,1.6682,1.6684,1.6687,1.6692,1.6707,1.6699,1.6701,1.6703,1.6718,1.6722,1.6723,1.6731,1.673,1.6731,1.6731,1.6731,1.6737,1.6737,0,0,0,0,0,0,1.6652,1.6655,1.668,1.6681,1.6669,1.6685,1.6688,1.6693,1.6707,1.6709,1.6703,1.6704,1.6721,1.6722,1.6724,1.6724,1.6731,1.6731,1.6732,1.6737,1.6737,1.6737,0,0,0,0,0,0,1.6651,1.6654,1.6679,1.6669,1.6672,1.6685,1.6691,1.6694,1.6697,1.6709,1.6712,1.6704,1.6721,1.6723,1.6727,1.6725,1.6732,1.6732,1.6738,1.6737,1.6737,1.6725,0,0,0,0,0,0,1.665,1.6653,1.6655,1.6669,1.6673,1.6684,1.6691,1.6694,1.6699,1.67,1.6711,1.6713,1.6721,1.6726,1.6728,1.6726,1.6733,1.6738,1.6738,1.6737,1.6726,1.6724,1.6723,0,0,0,0,0,1.6649,1.6651,1.6655,1.6658,1.6675,1.6684,1.6686,1.6695,1.6699,1.6699,1.6707,1.6713,1.6725,1.6727,1.6728,1.6727,1.6738,1.6738,1.6737,1.6726,1.6725,1.6723,0,0,0,0,0,0,1.6637,1.6653,1.6658,1.6665,1.6673,1.6686,1.6688,1.6694,1.67,1.6701,1.6711,1.6714,1.6717,1.6722,1.6724,1.6726,1.6732,1.6732,1.6723,1.6722,1.672,1.6719,1.6733,0,0,0,0,0,1.6635,1.6641,1.6655,1.6659,1.6663,1.6674,1.6679,1.6685,1.6693,1.6697,1.6704,1.6711,1.6716,1.6719,1.6725,1.6726,1.6728,1.6726,1.6725,1.6723,1.6723,1.6722,1.6721,1.6735,1.6735,1.6735,0,0,1.6631,1.6641,1.6644,1.6657,1.6664,1.6669,1.6677,1.6683,1.6686,1.6697,1.6702,1.6707,1.6715,1.6718,1.6719,1.6722,1.6719,1.6723,1.6722,1.6722,1.6721,1.672,1.6719,1.6735,1.6735,1.6735,0,0,1.6626,1.6635,1.6639,1.6645,1.6656,1.6663,1.6664,1.6676,1.668,1.6685,1.6692,1.6695,1.6704,1.6709,1.6713,1.6707,1.6712,1.6708,1.6702,1.6701,1.6699,1.6698,1.6695,1.6693,1.6708,1.6708,1.6708,0,1.662,1.663,1.664,1.6645,1.6649,1.6659,1.6662,1.6667,1.6679,1.6681,1.6684,1.6694,1.67,1.6703,1.6701,1.6704,1.6704,1.6707,1.6699,1.6698,1.6697,1.6694,1.6692,1.6707,1.6707,1.6707,1.6708,0,1.662,1.6626,1.6628,1.6638,1.6643,1.6647,1.6656,1.6659,1.6664,1.667,1.6674,1.6681,1.6687,1.6688,1.6694,1.6691,1.6692,1.6697,1.6703,1.6695,1.6692,1.6691,1.6706,1.6707,1.6707,1.6707,0,0,1.661,1.6625,1.6626,1.6629,1.664,1.6644,1.6647,1.6653,1.6655,1.6661,1.6663,1.6669,1.6673,1.6677,1.6682,1.6682,1.6674,1.6686,1.6686,1.6682,1.6669,1.6665,1.6663,1.6678,1.6677,1.6677,1.6668,0,1.6607,1.6614,1.6622,1.6625,1.663,1.6638,1.664,1.6646,1.6651,1.6654,1.6659,1.6663,1.6668,1.667,1.667,1.6675,1.6671,1.6676,1.6677,1.6677,1.6674,1.6662,1.6658,1.6648,1.6667,1.6666,1.6666,0,1.6604,1.661,1.6614,1.6622,1.6624,1.6626,1.6631,1.6635,1.664,1.6644,1.6647,1.6653,1.6654,1.6659,1.666,1.6662,1.6663,1.6665,1.6665,1.6665,1.6671,1.666,1.6646,1.6644,1.6665,1.6665,1.6665,0,1.6595,1.6604,1.6606,1.661,1.662,1.662,1.6624,1.663,1.6633,1.6636,1.6638,1.6641,1.6643,1.6645,1.6651,1.6655,1.665,1.6656,1.6651,1.6651,1.665,1.665,1.6634,1.6652,1.6652,1.6652,1.6652,0,1.659,1.6591,1.6602,1.6604,1.6605,1.6613,1.6614,1.6618,1.6623,1.6624,1.6631,1.6632,1.664,1.6641,1.6645,1.6644,1.6645,1.6646,1.6647,1.6645,1.6645,1.6645,1.6646,1.6651,1.6652,1.6652,1.6652,0,1.658,1.6588,1.6591,1.6599,1.6601,1.6601,1.6608,1.6609,1.6613,1.6615,1.6615,1.6622,1.6624,1.6629,1.6632,1.6635,1.6631,1.6634,1.663,1.663,1.6624,1.6624,1.6608,1.6606,1.6626,1.6625,1.6625,0,1.6576,1.6577,1.6585,1.6587,1.6591,1.6593,1.6595,1.6603,1.6604,1.6609,1.6609,1.661,1.6612,1.6613,1.6618,1.6619,1.6621,1.6615,1.6621,1.6618,1.6619,1.6619,1.6618,1.6614,1.6614,1.6613,1.6613,0,1.6568,1.6571,1.6574,1.6578,1.658,1.6583,1.6587,1.6587,1.6595,1.6596,1.6598,1.6599,1.6601,1.6602,1.6603,1.6606,1.661,1.6611,1.661,1.6608,1.6604,1.6604,1.6625,1.6612,1.6612,1.6612,1.6612,1.6612,1.656,1.6561,1.6566,1.6568,1.6572,1.6574,1.6574,1.6579,1.658,1.6583,1.6586,1.6587,1.6589,1.6592,1.6593,1.6592,1.6595,1.6594,1.6593,1.6593,1.6591,1.6605,1.6593,1.6593,1.6593,1.6593,1.6593,0,1.6551,1.6554,1.6557,1.6561,1.6562,1.6566,1.657,1.657,1.657,1.6573,1.6574,1.6574,1.6574,1.6578,1.6578,1.6576,1.6578,1.6576,1.6576,1.6575,1.6589,1.659,1.6574,1.6574,1.6574,1.6574,1.6574,1.6574,1.6547,1.6547,1.655,1.6551,1.6554,1.6554,1.6556,1.6557,1.6559,1.6559,1.6559,1.6561,1.6563,1.6563,1.6562,1.6563,1.6562,1.6559,1.656,1.6573,1.6575,1.6577,1.6577,1.6559,1.6559,1.6547,1.6547,1.6547]}]]